Starlink 32244

operational
NORAD ID: 60411 Int'l Des: 2024-141 Owner: SPXS Country: US Constellation: starlink
LEOCIRCULAR

Über Starlink 32244

Beschreibung wird geladen...

Live-Position

3D-Globus wird geladen...

Nächste Überflüge

Höhenverlauf

Altitude vs Time

uPlot chart will show altitude changes over time

Zweizeiliger Elementsatz

1 60411U 24141P 25353.13017199 .00010218 00000-0 35671-3 0 9990
2 60411 53.1616 256.9890 0000464 158.7502 201.3518 15.30192402 77244
Epoch: 19. Dez. 2025 • Age: 13 hours

Aktueller Status

Höhe 477.9 km
Geschwindigkeit 7.63 km/s
Subsatellitenpunkt -10.84°S, 106.48°E
Startdatum 10. Aug. 2024
Alter 1.3 years
Typ internet

Technische Details

Klassifizierung Payload
Masse 730.00 kg
Trockenmasse 700.00 kg
Gesamtmasse 730.00 kg
Länge 0.30 m
Durchmesser 4.10 m
Spannweite 29.00 m
Form Box + pan
Hersteller SPXS
Bus-Typ Starlink V2M
Phasenstatus In Orbit
Besitzer/Staat SPXS/US

Große Konstellationen

Loading constellations...